User: anonymous   Login
Location: Horowhenua
(40.7500°S, 175.3333°E)
Time: 01:05:00
(UTC+00:00)
Language:

SL-24 DEB - Orbit

View from above orbital plane
View from above orbital plane
View from above satellite
View from above satellite

Ground track
Ground track

The orbit data is extracted from the following two-line orbital elements,

1 36510U 10013C   23154.60090864  .00001920  00000-0  35151-3 0  9998
2 36510  92.0277  28.8561 0021450 312.8693  47.0719 14.65679601701425
Epoch (UTC): 03 June 2023 14:25:18
Eccentricity: 0.0021450
inclination: 92.0277°
perigee height: 660 km
apogee height: 690 km
right ascension of ascending node: 28.8561°
argument of perigee: 312.8693°
revolutions per day: 14.65679601
mean anomaly at epoch: 47.0719°
orbit number at epoch: 70142

The dashed part of the orbit path shows where the satellite is in the earth's shadow,  

DLR